Weather observations for the past three days for
Baton Rouge, Baton Rouge Metropolitan, Ryan Field
Imperial (Metric)
Date Time (cdt) Wind (mph) Vis. (mi.) Weather Sky Cond. Temperature (ºF) Relative Humidity Wind Chill (°F) Heat Index (°F) Pressure Precipitation (in)
Air Dwpt 6 hour altimeter (in) sea level (mb) 1 hr 3 hr 6 hr
Max. Min.
14 07:53 NE 3 10.00 Fair CLR 77 68 74% 79 29.96 1014.4
14 06:53 NE 5 10.00 Fair CLR 73 66.9 75 72 81% 29.95 1014.1
14 05:53 N 5 10.00 Partly Cloudy SCT055 73 66.9 81% 29.94 1013.7
14 04:53 Calm 10.00 Mostly Cloudy BKN050 73 68 84% 29.92 1013.0
14 03:53 Calm 10.00 Fair CLR 72 68 87% 29.92 1012.9
14 02:53 Calm 10.00 A Few Clouds FEW050 75 66.9 76% 76 29.91 1012.8
14 01:53 Calm 10.00 Fair CLR 75 68 79% 76 29.9 1012.4
14 00:53 Calm 10.00 Fair CLR 75 68 89.1 73.9 79% 76 29.9 1012.4
13 23:53 Calm 10.00 Fair CLR 75.9 66.9 74% 77 29.9 1012.5
13 22:53 Calm 10.00 Fair CLR 77 68 74% 79 29.91 1012.5
13 21:53 NW 3 10.00 Fair CLR 81 66 61% 83 29.91 1012.7
13 20:53 NW 3 10.00 Fair CLR 82.9 66 57% 85 29.9 1012.4
13 19:53 NW 3 10.00 Fair CLR 84.9 66 53% 87 29.9 1012.4
13 18:53 NW 5 10.00 Fair CLR 89.1 66 93 89.1 47% 92 29.9 1012.2
13 17:53 N 5 10.00 Fair CLR 91 66 44% 94 29.89 1012.0
13 16:53 NW 7 10.00 Fair CLR 91.9 66.9 44% 95 29.9 1012.2
13 15:53 Calm 10.00 Fair CLR 93 66 41% 96 29.91 1012.5
13 14:53 NW 7 10.00 Fair CLR 91 64.9 42% 93 29.92 1012.8
13 13:53 NW 6 10.00 Partly Cloudy SCT035 91.9 68 46% 96 29.93 1013.5
13 12:53 Vrbl 3 10.00 Fair CLR 89.1 68 91 73 50% 93 29.94 1013.8
13 11:53 NW 7 10.00 Fair CLR 90 66.9 47% 93 29.95 1014.0
13 10:53 N 5 10.00 Fair CLR 88 66.9 50% 91 29.96 1014.2
13 09:53 Calm 10.00 Fair CLR 84 64.9 53% 86 29.96 1014.2
13 08:53 NE 5 10.00 Partly Cloudy SCT050 79 64 60% 81 29.96 1014.3
13 07:53 NE 6 10.00 A Few Clouds FEW050 75.9 63 64% 78 29.95 1013.9
13 06:53 NE 5 10.00 Fair CLR 73 62.1 75.9 72 69% 29.93 1013.4
13 05:53 N 3 10.00 Fair CLR 72 61 68% 29.92 1012.9
13 04:53 N 7 10.00 Fair CLR 73 62.1 69% 29.91 1012.6
13 03:53 N 6 10.00 Fair CLR 73 62.1 69% 29.89 1012.0
13 02:53 Calm 10.00 Fair CLR 73.9 63 69% 29.89 1012.0
13 01:53 Calm 10.00 Fair CLR 73.9 63 69% 29.89 1012.1
13 00:53 N 3 10.00 Fair CLR 75.9 63 89.1 75.9 64% 78 29.91 1012.7
12 23:53 N 5 10.00 Fair CLR 77 63 62% 79 29.93 1013.2
12 22:53 N 7 10.00 Fair CLR 79 64 60% 81 29.93 1013.5
12 21:53 N 6 10.00 Fair CLR 81 64.9 58% 83 29.92 1013.1
12 20:53 N 3 10.00 Fair CLR 82.9 68 61% 86 29.91 1012.7
12 19:53 NW 3 10.00 Fair CLR 86 70 59% 91 29.9 1012.6
12 18:53 N 5 10.00 Fair CLR 89.1 69.1 91.9 87.1 52% 94 29.89 1012.1
12 17:53 N 7 10.00 Fair CLR 91 70 50% 97 29.89 1011.9
12 16:53 NW 6 10.00 A Few Clouds FEW045 FEW055 91.9 71.1 51% 99 29.9 1012.3
12 15:53 NW 7 10.00 Partly Cloudy SCT045 90 71.1 54% 96 29.9 1012.4
12 14:53 N 3 10.00 Partly Cloudy SCT043 90 70 52% 95 29.92 1013.0
12 12:53 N 7 10.00 Fair CLR 88 68 89.1 73 52% 92 29.95 1014.1
12 11:53 NE 3 10.00 Partly Cloudy SCT050 88 68 52% 92 29.97 1014.6
12 10:53 E 5 10.00 Fair CLR 84.9 66 53% 87 29.97 1014.7
12 09:53 NE 9 10.00 Partly Cloudy FEW038 SCT055 82.9 64.9 55% 85 29.97 1014.8
12 08:53 NE 7 10.00 Fair CLR 79 64 60% 81 29.97 1014.6
12 06:53 NE 6 10.00 Fair CLR 73 63 77 73 71% 29.94 1013.6
12 05:53 NE 6 10.00 Fair CLR 73 63 71% 29.92 1013.0
12 04:53 NE 5 10.00 Fair CLR 73 63 71% 29.91 1012.6
12 03:53 NE 5 10.00 Fair CLR 73.9 63 69% 29.9 1012.2
12 02:53 NE 6 10.00 Fair CLR 75 63 66% 77 29.9 1012.1
12 01:53 NE 6 10.00 Fair CLR 77 62.1 60% 79 29.91 1012.5
12 00:53 NE 6 10.00 Fair CLR 77 63 90 77 62% 79 29.91 1012.7
11 23:53 NE 8 10.00 Fair CLR 79 64.9 62% 81 29.91 1012.7
11 22:53 NE 8 10.00 A Few Clouds FEW060 80.1 66.9 64% 82 29.9 1012.4
11 21:53 NE 5 10.00 Fair CLR 81 68 65% 84 29.89 1011.8
11 20:53 NE 6 10.00 Fair CLR 82.9 68 61% 86 29.87 1011.3
11 19:53 NE 6 10.00 Fair CLR 86 68 55% 89 29.85 1010.5
11 18:53 N 6 10.00 Fair CLR 90 68 93.9 90 48% 94 29.84 1010.2
11 17:53 N 9 10.00 A Few Clouds FEW060 91.9 69.1 47% 97 29.83 1010.1
11 16:53 N 6 10.00 Partly Cloudy SCT050 91.9 68 46% 96 29.84 1010.3
11 15:53 E 8 10.00 Fair CLR 93 69.1 46% 98 29.84 1010.4
11 14:53 NE 9 10.00 A Few Clouds FEW049 93 69.1 46% 98 29.86 1010.9
11 13:53 Vrbl 5 10.00 Fair CLR 91.9 69.1 47% 97 29.88 1011.6
11 12:53 NE 7 10.00 Fair CLR 91 69.1 91 75.9 49% 96 29.89 1012.1
11 11:53 NE 5 10.00 Fair CLR 90 66.9 47% 93 29.89 1012.0
11 10:53 E 9 10.00 Fair CLR 87.1 64.9 48% 89 29.89 1012.1
11 09:53 NE 8 10.00 Fair CLR 84.9 64.9 51% 87 29.89 1012.0
11 08:53 E 9 10.00 Fair CLR 82 66 58% 84 29.9 1012.2
Date Time (cdt) Wind (mph) Vis. (mi.) Weather Sky Cond. Air Dwpt Max. Min. Relative Humidity Wind Chill (°F) Heat Index (°F) altimeter (in) sea level (mb) 1 hr 3 hr 6 hr
6 hour
Temperature (ºF) Pressure Precipitation (in)